Location: Bucquoy
(50.1391°N, 2.7097°E)
Time: 02:40:33
(UTC+00:00)

Okean 2 Rocket - Pass Details

Date: 06 May 2021
Orbit: 617 x 641 km, 82.5° (Epoch: 22 June)

Event Time Altitude Azimuth Distance (km) Brightness Sun altitude
Rises 00:29:19 0° 354° (N) 2,911 7.8 -22.6°
Reaches altitude 10° 00:31:39 10° 1° (N) 1,998 6.7 -22.6°
Maximum altitude 00:35:54 45° 74° (ENE) 850 3.9 -22.4°
Enters shadow 00:37:11 35° 119° (ESE) 1,011 4.0 -22.4°
